Regional Weather Roundup
Issued by NWS Upton, NY

Current Version | Previous Version | Text Only | Print | Product List | Glossary Off
Versions: 1 2 3 4 5 6 7 8 9 10 11 12 13 14 15 16 17 18 19 20 21 22 23 24 25 26 27
000 ASUS41 KOKX 291208 RWROKX REGIONAL WEATHER ROUNDUP NATIONAL WEATHER SERVICE NEW YORK NY 800 AM EDT SAT APR 29 2017 NOTE: "FAIR" INDICATES FEW OR NO CLOUDS BELOW 12,000 FEET WITH NO SIGNIFICANT WEATHER AND/OR OBSTRUCTIONS TO VISIBILITY. NYZ071-072-176-178-NJZ106-104-291300- NEW YORK CITY METRO AREA CITY SKY/WX TMP DP RH WIND PRES REMARKS Central Park CLOUDY 67 65 93 CALM 29.99F Wall St Helipt CLOUDY 63 61 94 SW3 29.98R Bronx Bot Gard N/A 68 63 83 CALM 29.97F LaGuardia APRT PTSUNNY 67 63 87 E5 29.97S Kennedy INTL CLOUDY 63 62 97 CALM 29.99R FOG Breezy Point N/A 57 N/A N/A SE3 N/A Newark/Liberty CLOUDY 66 63 90 S3 29.96F Teterboro CLOUDY 66 64 93 CALM 29.96S $$ NYZ177-179-078>081-291300- LONG ISLAND NEW YORK CITY SKY/WX TMP DP RH WIND PRES REMARKS Jones Beach N/A 55 N/A N/A S8 N/A Matinecock PT NOT AVBL Farmingdale CLOUDY 63 61 93 CALM 29.98S MacArthur/ISP CLOUDY 62 61 96 NW7 29.98S Shirley CLOUDY 59 59 100 S3 29.99S FOG Mt Sinai Harb N/A 59 N/A N/A CALM N/A Westhampton FOG 59 58 96 S3 30.00S VSB 1 East Hampton CLOUDY 55 55 98 CALM 29.99F THUNDER FOG Montauk NOT AVBL $$ NYZ052-065-067-291300- HUDSON VALLEY CITY SKY/WX TMP DP RH WIND PRES REMARKS White Plains PTSUNNY 66 58 75 CALM 29.97F Larchmont Harb N/A 61 N/A N/A E2 N/A Croton O-T Hud N/A 61 N/A N/A CALM N/A Newburgh PTSUNNY 64 57 77 CALM 29.99R Montgomery CLOUDY 63 54 72 SW3 29.96F Poughkeepsie CLOUDY 64 54 69 CALM 29.96S Albany CLOUDY 65 52 62 CALM 29.95F $$ NJZ001-105-106-008-010-013-015-019>022-104-291300- NEW JERSEY CITY SKY/WX TMP DP RH WIND PRES REMARKS Newark/Liberty CLOUDY 66 63 90 S3 29.96F Teterboro CLOUDY 66 64 93 CALM 29.96S Caldwell CLOUDY 64 60 87 CALM 29.97F Somerville PTSUNNY 61 61 100 CALM 29.97R FOG Linden N/A 65 63 92 CALM 29.98R Perth Amboy N/A 64 N/A N/A W1 N/A Sussex CLOUDY 61 60 97 CALM 29.99S Andover N/A 61 60 97 CALM 29.99R Trenton PTSUNNY 66 65 96 CALM 29.99R FOG Millville CLOUDY 74 71 91 W12 30.02R Atlantic City CLOUDY 74 68 81 W6 30.02R Wrightstown CLOUDY 69 68 97 S6 29.98R Toms River CLOUDY 71 68 90 S6 30.02R Belmar CLOUDY 65 64 97 S7 30.01R $$ PAZ047>061-062-071-291300- EASTERN PENNSYLVANIA CITY SKY/WX TMP DP RH WIND PRES REMARKS Philadelphia CLOUDY 69 66 90 SW8 30.03R FOG Allentown CLOUDY 63 58 83 W3 30.00R Scranton CLOUDY 58 56 93 SW3 30.01R FOG $$ CTZ002-004>006-009-010-012-RIZ004-006-007-MAZ004-011-015-291300- SOUTHERN NEW ENGLAND IN CT CITY SKY/WX TMP DP RH WIND PRES REMARKS Bradley INTL CLOUDY 65 53 65 S5 29.97R Hartford CLOUDY 67 53 61 S3 29.97R Danbury CLOUDY 62 58 86 CALM 29.98F Wtrbury/Oxford MOSUNNY 66 50 55 SE3 30.00R Bridgeport PTSUNNY 66 57 72 N3 29.96F Meriden PTSUNNY 66 55 67 S6 29.98S New Haven CLOUDY 61 54 77 S7 29.97F Chester N/A 68 57 68 S5 29.99F Groton CLOUDY 57 54 89 S8 29.99F Wilimantic CLOUDY 64 57 78 CALM 29.99S IN RI CITY SKY/WX TMP DP RH WIND PRES REMARKS Providence CLOUDY 63 55 75 CALM 30.00R Block Island CLOUDY 54 54 100 SW14 30.04R FOG Westerly CLOUDY 57 55 93 S9 30.01S FOG IN MA CITY SKY/WX TMP DP RH WIND PRES REMARKS Boston PTSUNNY 68 54 60 W5 29.97S Worcester CLOUDY 64 49 57 SW6 29.99S Westfield CLOUDY 61 57 87 SW5 29.96R Provincetown PTSUNNY 58 52 80 S8 29.99S Nantucket CLOUDY 53 52 96 SW7 30.04R FOG $$ ANZ330-335-338-340-345-350-353-355-291300- COASTAL MARINE OBSERVATIONS STATION/POSITION TIME SKY/WX TEMP WIND PRES VSBY WAVE AIR SEA DIR/SP/G HT/PER (UTC) (F) (DEG/KT/KT) (MB) (MI) (FT/S) NY HARB ENTRANCE 1050 54 51 170/ 10/ 12 1015.5 3/ 8 20 S FIRE ISLAND 1150 54 50 160/ 14/ 16 1015.2 4/ 8 GREAT SOUTH BAY NOT AVBL 23 SSW MONTAUK P 1050 50 47 1016.3 4/ 8 15 E BARNEGAT LI 1130 54 N/A 4/ 8 HUDSON CANYON 1050 55 49 200/ 17/ 23 1016.4 4/ 8 KINGS POINT 1148 64 51 170/ 3/ 5 1014.5 EXECUTION ROCKS NOT AVBL CENTRAL LI SOUND 1130 51 100/ 4/ 6 N/A 0 EASTERN LI SOUND NOT AVBL ROBBINS REEF 1148 62 120/ 2/ 2 1015.1 $$ >>>>>>>>>>>>>>>>>>>>>>>>>>>> KEY <<<<<<<<<<<<<<<<<<<<<<<<<<< > < > SKY/WX - Sky Condition/Present Weather < > TMP - Temperature in Fahrenheit < > DP - Dew Point in Fahrenheit < > RH - Relative Humidity in Percent < > WIND - Direction (from) and Speed in MPH < > PRES - Mean Sea Level Pressure (inches of Hg) < > WCI - Wind Chill Index < > VSB - VISIBILITY IN MILES < > HX - HEAT INDEX < > TC - TEMPERATURE IN CELSIUS < > VRB - VARIABLE WIND DIRECTION < > < >>>>>>>>>>>>>>>>>>>>>>>>>>>> KEY <<<<<<<<<<<<<<<<<<<<<<<<<<<

USA.gov is the U.S. government's official web portal to all federal, state and local government web resources and services.